Shelbyville, IN

11:57 AM EDT on July 24, 2017 (GMT -0400)
Shelbyville Municipal

Weather History for KGEZ - March, 2013

Change the Weather History Date:

Wednesday, March 6, 2013

  Actual Average Record
Temperature  
Mean Temperature 32 °F 38 °F  
Max Temperature 34 °F 47 °F 67 °F (2009)
Min Temperature 29 °F 28 °F -2 °F (2015)
Degree Days  
Heating Degree Days 33 27  
Month to date heating degree days 198 169  
Since 1 July heating degree days 4000 4332  
Cooling Degree Days 0 0  
Month to date cooling degree days 0 0  
Year to date cooling degree days 0 0  
Moisture  
Dew Point 26 °F    
Average Humidity 79    
Maximum Humidity 85    
Minimum Humidity 72    
Precipitation  
Precipitation 0.01 in 0.08 in 0.63 in (1999)
Month to date precipitation 0.21 0.49  
Year to date precipitation 5.41 5.24  
Sea Level Pressure  
Sea Level Pressure 30.01 in    
Wind  
Wind Speed 14 mph (NW)    
Max Wind Speed 28 mph    
Max Gust Speed 35 mph    
Visibility 7 miles    
Events Snow    
T = Trace of Precipitation, MM = Missing Value Source: NWS Daily Summary

Daily Weather History Graph

Daily Weather History Graph

Search for Another Location

Airport or City:

Trip Planner

Search our weather history database for the weather conditions in past years. The results will help you decide how hot, cold, wet, or windy it might be!

Date:

Astronomy

Mar. 06, 2013 Rise Set
Actual Time 7:08 AM EST 6:41 PM EST
Civil Twilight 6:41 AM EST 7:07 PM EST
Nautical Twilight 6:10 AM EST 7:39 PM EST
Astronomical Twilight 5:39 AM EST 8:10 PM EST
Moon 3:15 AM EST (3/6) 1:23 PM EST (3/6)
Length of Visible Light 12h 26m
Length of Day
11h 32m
Waning Crescent, 30% of the Moon is Illuminated
Mar 6
Waning Crescent
Mar 11
New
Mar 19
First Quarter
Mar 27
Full
Apr 3
Last Quarter

Hourly Weather History & Observations

Time (EST) Temp. Windchill Dew Point Humidity Pressure Visibility Wind Dir Wind Speed Gust Speed Precip Events Conditions
12:10 AM 30.2 °F 20.2 °F 26.6 °F 86% 29.71 in 1.2 mi NW 12.7 mph - 0.00 in Snow Light Snow
12:25 AM 30.2 °F 19.8 °F 26.6 °F 86% 29.71 in 1.2 mi NW 13.8 mph - 0.00 in Snow Light Snow
12:53 AM 30.0 °F 19.5 °F 27.0 °F 88% 29.74 in 1.0 mi NW 13.8 mph - 0.00 in Snow Light Snow
1:32 AM 30.2 °F 18.5 °F 26.6 °F 86% 29.74 in 1.8 mi NW 17.3 mph 24.2 mph 0.01 in Snow Light Snow
1:42 AM 30.2 °F 18.1 °F 26.6 °F 86% 29.74 in 1.2 mi NNW 18.4 mph - 0.01 in Snow Light Snow
1:53 AM 30.0 °F 18.7 °F 26.1 °F 85% 29.77 in 1.0 mi NNW 16.1 mph - 0.01 in Snow Light Snow
2:15 AM 30.2 °F 18.1 °F 26.6 °F 86% 29.76 in 1.0 mi NNW 18.4 mph - 0.00 in Snow Light Snow
2:45 AM 30.2 °F 18.9 °F 26.6 °F 86% 29.77 in 3.0 mi NNW 16.1 mph - 0.00 in Snow Light Snow
2:53 AM 30.9 °F 19.4 °F 27.0 °F 85% 29.80 in 6.0 mi NNW 17.3 mph - 0.00 in Snow Light Snow
3:53 AM 30.0 °F 16.6 °F 25.0 °F 82% 29.83 in 7.0 mi NNW 23.0 mph 29.9 mph 0.00 in   Overcast
4:53 AM 28.9 °F 15.8 °F 24.1 °F 82% 29.87 in 9.0 mi NNW 20.7 mph 32.2 mph 0.00 in   Overcast
5:36 AM 28.4 °F 16.2 °F 24.8 °F 86% 29.87 in 9.0 mi NNW 17.3 mph 25.3 mph N/A   Overcast
5:53 AM 30.0 °F 17.5 °F 24.1 °F 79% 29.91 in 10.0 mi NNW 19.6 mph 24.2 mph N/A   Overcast
6:04 AM 28.4 °F 16.2 °F 24.8 °F 86% 29.91 in 10.0 mi NNW 17.3 mph 25.3 mph N/A   Overcast
6:13 AM 28.4 °F 16.2 °F 24.8 °F 86% 29.92 in 10.0 mi NNW 17.3 mph - N/A   Overcast
6:53 AM 30.0 °F 18.7 °F 25.0 °F 82% 29.97 in 10.0 mi NNW 16.1 mph - N/A   Overcast
7:34 AM 28.4 °F 16.2 °F 24.8 °F 86% 29.98 in 10.0 mi NNW 17.3 mph - N/A   Overcast
7:50 AM 28.4 °F 16.2 °F 24.8 °F 86% 29.99 in 10.0 mi NNW 17.3 mph - N/A   Overcast
7:53 AM 28.9 °F 16.5 °F 24.1 °F 82% 30.02 in 10.0 mi NNW 18.4 mph - N/A   Overcast
8:53 AM 28.9 °F 15.4 °F 24.1 °F 82% 30.08 in 9.0 mi NNW 21.9 mph - N/A   Overcast
9:53 AM 30.0 °F 18.3 °F 24.1 °F 79% 30.11 in 10.0 mi NNW 17.3 mph 25.3 mph N/A   Overcast
10:53 AM 30.9 °F 19.8 °F 25.0 °F 79% 30.14 in 10.0 mi NNW 16.1 mph 24.2 mph N/A   Overcast
11:53 AM 32.0 °F 22.5 °F 25.0 °F 75% 30.16 in 10.0 mi NNW 12.7 mph - N/A   Overcast
12:53 PM 33.1 °F 24.4 °F 26.1 °F 75% 30.17 in 10.0 mi North 11.5 mph - N/A   Overcast
1:53 PM 33.1 °F 24.9 °F 27.0 °F 78% 30.17 in 10.0 mi NNW 10.4 mph - N/A   Overcast
2:53 PM 34.0 °F 27.2 °F 27.0 °F 75% 30.18 in 10.0 mi NNW 8.1 mph - N/A   Overcast
3:53 PM 33.1 °F 24.9 °F 28.0 °F 82% 30.19 in 8.0 mi WNW 10.4 mph - N/A   Overcast
4:53 PM 33.1 °F 24.9 °F 28.0 °F 82% 30.21 in 8.0 mi WNW 10.4 mph - N/A   Overcast
5:53 PM 32.0 °F 23.6 °F 27.0 °F 82% 30.23 in 8.0 mi WNW 10.4 mph - N/A   Overcast
6:53 PM 32.0 °F 23.6 °F 28.0 °F 85% 30.25 in 6.0 mi WNW 10.4 mph - N/A   Overcast
7:53 PM 32.0 °F 24.2 °F 28.0 °F 85% 30.26 in 6.0 mi WNW 9.2 mph - N/A   Overcast
8:53 PM 32.0 °F 24.8 °F 27.0 °F 82% 30.27 in 7.0 mi WNW 8.1 mph - N/A   Overcast
9:53 PM 32.0 °F 23.6 °F 27.0 °F 82% 30.27 in 9.0 mi WNW 10.4 mph - N/A   Overcast
10:53 PM 30.9 °F 23.5 °F 27.0 °F 85% 30.27 in 10.0 mi WNW 8.1 mph - N/A   Overcast
11:53 PM 30.9 °F 24.3 °F 27.0 °F 85% 30.27 in 9.0 mi WNW 6.9 mph - N/A   Overcast